Patrick Air Force Base, FL

1:43 AM EDT on August 26, 2016 (GMT -0400)
Patrick Air Force Base

Weather History for KCOF - September, 2013

Change the Weather History Date:

Wednesday, September 11, 2013

  Actual Average Record
Temperature  
Mean Temperature 84 °F -  
Max Temperature 88 °F 84 °F 91 °F (2015)
Min Temperature 80 °F 75 °F 75 °F (1997)
Cooling Degree Days 18    
Growing Degree Days 34 (Base 50)    
Moisture  
Dew Point 73 °F    
Average Humidity 71    
Maximum Humidity 79    
Minimum Humidity 61    
Precipitation  
Precipitation 0.00 in - - ()
Sea Level Pressure  
Sea Level Pressure 30.07 in    
Wind  
Wind Speed 11 mph (East)    
Max Wind Speed 15 mph    
Max Gust Speed -    
Visibility 10 miles    
Events Thunderstorm    
Averages and records for this station are not official NWS values.
T = Trace of Precipitation, MM = Missing Value Source: NWS Daily Summary

Daily Weather History Graph

Daily Weather History Graph

Search for Another Location

Airport or City:

Trip Planner

Search our weather history database for the weather conditions in past years. The results will help you decide how hot, cold, wet, or windy it might be!

Date:

Astronomy

Sep. 11, 2013 Rise Set
Actual Time 7:05 AM EDT 7:31 PM EDT
Civil Twilight 6:42 AM EDT 7:55 PM EDT
Nautical Twilight 6:14 AM EDT 8:22 PM EDT
Astronomical Twilight 5:46 AM EDT 8:50 PM EDT
Moon 1:00 PM EDT (9/11) 11:58 PM EDT (9/11)
Length of Visible Light 13h 13m
Length of Day
12h 25m
Waxing Crescent, 38% of the Moon is Illuminated
Sep 11
Waxing Crescent
Sep 12
First Quarter
Sep 19
Full
Sep 26
Last Quarter
Oct 4
New

Hourly Weather History & Observations

Time (EDT) Temp. Heat Index Dew Point Humidity Pressure Visibility Wind Dir Wind Speed Gust Speed Precip Events Conditions
12:58 AM 81.1 °F 86.2 °F 73.4 °F 77% 30.08 in 10.0 mi East 12.7 mph - N/A   Clear
1:58 AM 81.5 °F 86.9 °F 73.6 °F 77% 30.06 in 10.0 mi East 11.5 mph - N/A   Partly Cloudy
2:58 AM 81.1 °F 86.0 °F 72.9 °F 76% 30.04 in 10.0 mi East 10.4 mph - N/A   Clear
3:58 AM 81.3 °F 86.1 °F 72.7 °F 75% 30.06 in 10.0 mi ENE 12.7 mph - N/A   Clear
4:58 AM 81.0 °F 85.2 °F 72.1 °F 74% 30.06 in 10.0 mi ENE 12.7 mph - N/A   Clear
5:58 AM 80.8 °F 84.7 °F 71.2 °F 73% 30.06 in 10.0 mi ENE 12.7 mph - N/A   Clear
6:58 AM 80.8 °F 84.6 °F 70.9 °F 72% 30.06 in 10.0 mi ENE 11.5 mph - N/A Thunderstorm Clear
7:58 AM 81.7 °F 86.3 °F 72.0 °F 72% 30.09 in 10.0 mi ENE 12.7 mph - N/A   Clear
8:58 AM 83.5 °F 89.1 °F 72.1 °F 69% 30.09 in 10.0 mi ENE 12.7 mph - N/A   Clear
9:58 AM 85.3 °F 92.2 °F 73.0 °F 67% 30.09 in 10.0 mi ENE 12.7 mph - N/A   Clear
10:58 AM 86.5 °F 94.6 °F 73.8 °F 66% 30.11 in 10.0 mi ENE 15.0 mph - N/A   Clear
11:58 AM 87.4 °F 94.4 °F 72.7 °F 61% 30.11 in 10.0 mi East 15.0 mph - N/A   Clear
12:58 PM 85.6 °F 91.8 °F 72.3 °F 64% 30.09 in 10.0 mi East 12.7 mph - N/A   Clear
1:58 PM 86.5 °F 93.8 °F 72.9 °F 64% 30.09 in 10.0 mi East 12.7 mph - N/A   Clear
2:58 PM 87.4 °F 95.3 °F 73.6 °F 63% 30.06 in 10.0 mi East 10.4 mph - N/A   Clear
3:58 PM 86.9 °F 94.5 °F 73.4 °F 64% 30.04 in 10.0 mi ENE 11.5 mph - N/A   Clear
4:58 PM 86.5 °F 93.8 °F 73.2 °F 64% 30.04 in 10.0 mi East 11.5 mph - N/A   Clear
5:58 PM 82.9 °F 89.1 °F 73.6 °F 73% 30.04 in 10.0 mi ESE 6.9 mph - N/A   Partly Cloudy
6:58 PM 82.4 °F 88.4 °F 73.8 °F 75% 30.04 in 10.0 mi East 8.1 mph - N/A   Clear
7:58 PM 81.7 °F 85.8 °F 71.1 °F 70% 30.04 in 10.0 mi East 8.1 mph - N/A   Clear
8:58 PM 81.5 °F 86.3 °F 72.7 °F 74% 30.06 in 10.0 mi East 4.6 mph - N/A   Clear
9:58 PM 81.3 °F 86.3 °F 73.2 °F 76% 30.06 in 10.0 mi ESE 6.9 mph - N/A   Partly Cloudy
10:58 PM 81.1 °F 86.4 °F 73.8 °F 78% 30.06 in 10.0 mi East 6.9 mph - N/A   Clear
11:58 PM 81.0 °F 86.2 °F 73.8 °F 79% 30.06 in 10.0 mi East 6.9 mph - N/A   Clear